Weather History for Carcassonne, France

Change the Weather History Date:

Tuesday, October 1, 2013

  Actual Average (LFMP) Record (LFMP)
Temperature  
Mean Temperature 70 °F -  
Max Temperature 86 °F 71 °F 91 °F (1997)
Min Temperature 55 °F 57 °F 53 °F (2002)
Cooling Degree Days 6    
Growing Degree Days 20 (Base 50)    
Moisture  
Dew Point 57 °F    
Average Humidity 73    
Maximum Humidity 100    
Minimum Humidity 31    
Precipitation  
Precipitation 0.00 in - - ()
Sea Level Pressure  
Sea Level Pressure 29.77 in    
Wind  
Wind Speed 2 mph ()    
Max Wind Speed 8 mph    
Max Gust Speed -    
Visibility 6.1 miles    
Events      
Averages and records for this station are not official NWS values.
T = Trace of Precipitation, MM = Missing Value Source: Averaged Metar Reports

Daily Weather History Graph

Daily Weather History Graph

Search for Another Location

Airport:

Trip Planner

Search our weather history database for the weather conditions in past years. The results will help you decide how hot, cold, wet, or windy it might be!

Date:

Astronomy

Oct. 01, 2013 Rise Set
Actual Time 7:48 AM CEST 7:31 PM CEST
Civil Twilight 7:19 AM CEST 8:00 PM CEST
Nautical Twilight 6:46 AM CEST 8:33 PM CEST
Astronomical Twilight 6:13 AM CEST 9:06 PM CEST
Moon 4:02 AM CEST (10/1) 5:31 PM CEST (10/1)
Length of Visible Light 12h 40m
Length of Day
11h 43m
Waning Crescent, 14% of the Moon is Illuminated
Oct 1
Waning Crescent
Oct 5
New
Oct 12
First Quarter
Oct 19
Full
Oct 27
Last Quarter

Hourly Weather History & Observations

Time (CEST) Temp. Heat Index Dew Point Humidity Pressure Visibility Wind Dir Wind Speed Gust Speed Precip Events Conditions
12:00 AM 60.8 °F - 57.2 °F 88% 29.80 in 6.2 mi South 2.3 mph - N/A   Unknown
12:30 AM 59.0 °F - 57.2 °F 94% 29.80 in 6.2 mi South 3.5 mph - N/A   Unknown
1:00 AM 59.0 °F - 57.2 °F 94% 29.80 in 6.2 mi South 3.5 mph - N/A   Unknown
1:30 AM 59.0 °F - 57.2 °F 94% 29.80 in 6.2 mi Variable 2.3 mph - N/A   Unknown
2:00 AM 57.2 °F - 55.4 °F 94% 29.80 in 6.2 mi Calm Calm - N/A   Unknown
2:30 AM 57.2 °F - 55.4 °F 94% 29.80 in 5.0 mi WSW 1.2 mph - N/A   Unknown
3:00 AM 57.2 °F - 55.4 °F 94% 29.80 in 6.2 mi Calm Calm - N/A   Unknown
3:30 AM 55.4 °F - 53.6 °F 94% 29.80 in 3.7 mi Calm Calm - N/A   Unknown
4:00 AM 55.4 °F - 55.4 °F 100% 29.77 in - Calm Calm - N/A   Mist
4:30 AM 55.4 °F - 53.6 °F 94% 29.77 in 6.2 mi Calm Calm - N/A   Unknown
5:00 AM 57.2 °F - 55.4 °F 94% 29.77 in 6.2 mi Variable 3.5 mph - N/A   Unknown
5:30 AM 55.4 °F - 55.4 °F 100% 29.77 in 6.2 mi Variable 2.3 mph - N/A   Unknown
6:00 AM 55.4 °F - 55.4 °F 100% 29.77 in 6.2 mi Variable 2.3 mph - N/A   Unknown
6:30 AM 57.2 °F - 55.4 °F 94% 29.77 in 6.2 mi Calm Calm - N/A   Unknown
7:00 AM 55.4 °F - 53.6 °F 94% 29.77 in 6.2 mi Calm Calm - N/A   Unknown
7:30 AM 55.4 °F - 53.6 °F 94% 29.77 in 6.2 mi West 2.3 mph - N/A   Overcast
8:00 AM 57.2 °F - 55.4 °F 94% 29.74 in 6.2 mi Variable 3.5 mph - N/A   Unknown
8:30 AM 57.2 °F - 55.4 °F 94% 29.77 in 6.2 mi Calm Calm - N/A   Unknown
9:00 AM 57.2 °F - 57.2 °F 100% 29.77 in 6.2 mi Calm Calm - N/A   Unknown
9:30 AM 60.8 °F - 59.0 °F 94% 29.77 in 6.2 mi Variable 2.3 mph - N/A   Unknown
10:00 AM 62.6 °F - 59.0 °F 88% 29.77 in 6.2 mi Calm Calm - N/A   Unknown
10:30 AM 66.2 °F - 59.0 °F 78% 29.77 in 6.2 mi Variable 1.2 mph - N/A   Unknown
11:00 AM 69.8 °F - 57.2 °F 64% 29.77 in 6.2 mi Variable 2.3 mph - N/A   Unknown
11:30 AM 71.6 °F - 59.0 °F 64% 29.77 in 6.2 mi Variable 3.5 mph - N/A   Unknown
12:00 PM 73.4 °F - 57.2 °F 57% 29.77 in 6.2 mi East 3.5 mph - N/A   Unknown
12:30 PM 75.2 °F - 57.2 °F 53% 29.77 in 6.2 mi East 5.8 mph - N/A   Unknown
1:00 PM 78.8 °F - 59.0 °F 51% 29.77 in 6.2 mi East 4.6 mph - N/A   Unknown
1:30 PM 78.8 °F - 55.4 °F 44% 29.77 in 6.2 mi East 5.8 mph - N/A   Unknown
2:00 PM 82.4 °F 81.7 °F 55.4 °F 39% 29.74 in 6.2 mi ENE 4.6 mph - N/A   Unknown
2:30 PM 82.4 °F 82.0 °F 57.2 °F 42% 29.74 in 6.2 mi East 4.6 mph - N/A   Unknown
3:00 PM 84.2 °F 82.8 °F 53.6 °F 35% 29.74 in 6.2 mi Variable 2.3 mph - N/A   Unknown
3:30 PM 84.2 °F - 51.8 °F 33% 29.71 in 6.2 mi Variable 3.5 mph - N/A   Unknown
4:00 PM 86.0 °F - 51.8 °F 31% 29.71 in 6.2 mi Calm Calm - N/A   Unknown
4:30 PM 84.2 °F 82.8 °F 53.6 °F 35% 29.71 in 6.2 mi Calm Calm - N/A   Partly Cloudy
5:00 PM 82.4 °F 81.7 °F 55.4 °F 39% 29.74 in 6.2 mi Variable 2.3 mph - N/A   Mostly Cloudy
5:30 PM 80.6 °F 81.1 °F 59.0 °F 48% 29.74 in 6.2 mi Calm Calm - N/A   Unknown
6:00 PM 78.8 °F - 60.8 °F 54% 29.74 in 6.2 mi NE 2.3 mph - N/A   Unknown
6:30 PM 78.8 °F - 59.0 °F 51% 29.74 in 6.2 mi East 2.3 mph - N/A   Unknown
7:00 PM 77.0 °F - 59.0 °F 54% 29.74 in 6.2 mi ENE 4.6 mph - N/A   Unknown
7:30 PM 75.2 °F - 59.0 °F 57% 29.74 in 6.2 mi East 8.1 mph - N/A   Unknown
8:00 PM 73.4 °F - 59.0 °F 61% 29.77 in 6.2 mi East 3.5 mph - N/A   Unknown
8:30 PM 71.6 °F - 60.8 °F 69% 29.80 in 6.2 mi East 3.5 mph - N/A   Unknown
9:00 PM 71.6 °F - 60.8 °F 69% 29.80 in 6.2 mi ESE 3.5 mph - N/A   Unknown
9:30 PM 69.8 °F - 60.8 °F 73% 29.80 in 6.2 mi ESE 3.5 mph - N/A   Unknown
10:00 PM 68.0 °F - 60.8 °F 78% 29.80 in 6.2 mi East 3.5 mph - N/A   Unknown
10:30 PM 68.0 °F - 60.8 °F 78% 29.80 in 6.2 mi Variable 2.3 mph - N/A   Unknown
11:00 PM 66.2 °F - 60.8 °F 83% 29.80 in 6.2 mi ENE 3.5 mph - N/A   Unknown
11:30 PM 64.4 °F - 60.8 °F 88% 29.83 in 6.2 mi ENE 2.3 mph - N/A   Unknown